Regional Weather Roundup
Issued by NWS

Home | Current Version | Previous Version | Graphics & Text | Print | Product List | Glossary Off
Versions: 1 2 3 4 5 6 7 8 9 10 11 12 13 14 15 16 17 18 19 20 21 22 23 24 25 26 27 28 29 30 31 32 33 34 35 36 37 38 39 40 41 42 43 44 45 46 47 48 49 50

000
ASUS43 KDTX 031110
RWRMI
MICHIGAN HOURLY REGIONAL WEATHER ROUNDUP
NATIONAL WEATHER SERVICE DETROIT/PONTIAC MI
700 AM EDT TUE MAY 03 2016

NOTE: "FAIR" INDICATES FEW OR NO CLOUDS BELOW 12,000 FEET WITH NO
SIGNIFICANT WEATHER AND/OR OBSTRUCTION TO VISIBILITY.

MIZ047>049-052>055-059>063-066>070-074>076-081>083-031200-
SOUTHEAST LOWER MICHIGAN

CITY           SKY/WX    TMP DP  RH WIND       PRES   REMARKS
ALMA           PTCLDY    36  36 100 CALM      29.94S
ANN ARBOR      FOG       37  37 100 CALM      29.93S VSB 1/4
BAD AXE        CLEAR     31  30  96 CALM      29.94F
CARO           PTCLDY    31  31  97 CALM      29.93F
DETROIT CITY   CLOUDY    43  40  89 CALM      29.94S
DETROIT        FOG       41  39  93 N3        29.94S VSB 1/8
FLINT          FOG       36  33  89 CALM      29.95S VSB 1/2
GROSSE ILE     FOG       41  39  93 CALM      29.92S VSB 1/2
HILLSDALE      CLOUDY    46  44  90 CALM      29.93S
HOWELL         CLEAR     38  37  98 CALM      29.93F FOG

CITY           SKY/WX    TMP DP  RH WIND       PRES   REMARKS
JACKSON        CLEAR     42  41  96 CALM      29.94S
LAMBERTVILLE   CLOUDY    48  46  94 CALM      29.94R FOG
LANSING        CLEAR     38  37  97 CALM      29.95S
LAPEER         FAIR      32  32  99 CALM      29.95S
MASON          FOG       38  37  97 CALM      29.94S VSB 1/2
MONROE         FOG       42  42 100 CALM      29.92S VSB<1/4
PONTIAC        PTCLDY    38  36  92 CALM      29.93S FOG
PORT HOPE        N/A     39  31  72 SW7       29.92S WCI  34
PORT HURON     CLOUDY    39  37  93 CALM      29.94S
TRI CITIES     CLEAR     41  34  76 SW6       29.94F
MIDLAND        FAIR      33  33  99 CALM      29.94R
TROY           MOCLDY    41  39  91 CALM      29.95S FOG
SAGINAW HB     CLEAR     34  32  93 CALM      29.94S
$$
MIZ043>046-050>051-056>058-064>065-071>073-077>080-031200-
SOUTHWEST LOWER MICHIGAN

CITY           SKY/WX    TMP DP  RH WIND       PRES   REMARKS
BATTLE CREEK   CLEAR     39  38  96 CALM      29.95S
BENTON HARBOR  CLEAR     35  33  92 CALM      29.96S
BIG RAPIDS     CLEAR     34  31  91 CALM      29.93S
COLDWATER      CLOUDY    47  46  94 CALM      29.94S
FREMONT        FAIR      35  35 100 CALM      29.94S
HOLLAND        PTCLDY    38  35  89 SW5       29.96S WCI  34
GRAND RAPIDS   PTCLDY    39  36  89 CALM      29.95S
IONIA          FAIR      38  37  94 W5        29.93S WCI  35
KALAMAZOO      CLEAR     40  38  93 CALM      29.95S
LUDINGTON      CLEAR     33  33 100 CALM      29.93F
MARSHALL       FOG       37  37  97 CALM      29.94S VSB 1/4
MOUNT PLEASANT CLEAR     36  34  95 CALM      29.93S
MUSKEGON       PTCLDY    36  32  85 CALM      29.95S
SOUTH HAVEN    FOG       34  33  99 CALM      29.96S VSB<1/4
$$
MIZ016>042-031200-
NORTHERN LOWER MICHIGAN

CITY           SKY/WX    TMP DP  RH WIND       PRES   REMARKS
ALPENA         CLEAR     34  30  85 CALM      29.91F
BEAVER ISLAND  CLOUDY    32  31  95 CALM      29.88F
BELLAIRE       CLEAR     32  31  97 CALM      29.92S
CADILLAC       CLEAR     30  28  92 CALM      29.91S
CHARLEVOIX     CLEAR     37  33  87 SE3       29.92F
FRANKFORT      CLEAR     33  31  94 CALM      29.91S
GAYLORD        CLEAR     36  28  73 CALM      29.90F
GRAYLING       CLEAR     28  27  93 CALM      29.92S
HARBOR SPRINGS CLEAR     34  31  88 CALM      29.89F
HOUGHTON LAKE  CLEAR     32  30  92 CALM      29.92S
MANISTEE       CLEAR     30  27  86 E3        29.93S
OSCODA         CLEAR     34  30  83 S3        29.92S
PELLSTON       CLEAR     29  27  92 CALM      29.90F
ROGERS CITY    CLEAR     34  31  88 CALM      29.91S
TRAVERSE CITY  PTCLDY    37  31  78 S3        29.90F
$$
MIZ007>008-015-031200-
EASTERN UPPER MICHIGAN

CITY           SKY/WX    TMP DP  RH WIND       PRES   REMARKS
KINROSS          N/A     37  34  87 SW6       29.88S WCI  33
MACKINAC ISLAN PTCLDY    38  32  79 SW6       29.88S WCI  33
NEWBERRY       PTCLDY    36  32  85 S6        29.85F WCI  32
S. S. MARIE    CLOUDY    36  31  82 CALM      29.87F
MUNISING         N/A     42  32  67 S10       29.81F
$$
MIZ004>006-011>014-085-031200-
CENTRAL UPPER MICHIGAN

CITY           SKY/WX    TMP DP  RH WIND       PRES   REMARKS
MANISTIQUE     CLEAR     33  32  96 SE3       29.86S
ESCANABA       CLEAR     30  28  93 CALM      29.85F
MENOMINEE      CLEAR     45  34  65 W6        29.86F
SAWYER-GWINN   CLEAR     34  30  86 CALM      29.81F
$$
MIZ001>003-009>011-084-031200-
WESTERN UPPER MICHIGAN

CITY           SKY/WX    TMP DP  RH WIND       PRES   REMARKS
IRON MOUNTAIN  CLEAR     32  28  85 CALM      29.83F
HOUGHTON       MOCLDY    53  29  39 W15       29.76F
COPPER HARBOR    N/A     46  34  62 W7        29.74F
IRONWOOD         N/A     52  32  46 SW8       29.80F
$$

ABBREVIATIONS USED IN REMARKS
   TC - TEMPERATURE IN CELSIUS
  WCI - WIND CHILL INDEX
   HX - HEAT INDEX
  VSB - VISIBILITY





USA.gov is the U.S. government's official web portal to all federal, state and local government web resources and services.